User: anonymous   Login
Location: Newark
(50.2553°N, 2.4750°E)
Time: 07:27:07
(UTC+00:00)
Language:

LightSail 2 - Orbit

View from above orbital plane
View from above orbital plane
View from above satellite
View from above satellite

Ground track
Ground track

The orbit data is extracted from the following two-line orbital elements,

1 44420U 19036AC  19348.90809402 +.00003914 +00000-0 +86032-3 0  9999
2 44420 024.0095 198.5461 0024003 262.7115 097.0561 14.53891407023277
Epoch (UTC): 14 December 2019 21:47:39
Eccentricity: 0.0024003
inclination: 24.0095°
perigee height: 696 km
apogee height: 730 km
right ascension of ascending node: 198.5461°
argument of perigee: 262.7115°
revolutions per day: 14.53891407
mean anomaly at epoch: 97.0561°
orbit number at epoch: 2327

The dashed part of the orbit path shows where the satellite is in the earth's shadow,  

DLR